Portada
METAR-TAF:

METAR-TAF

Aeroports :

Komatsujima, Japó

latitud: 34-00N, longitud: 134-38E, altitud: 3 m

Observació

L'informe es va fer fa 33 minuts, a les 19:52 UTC
Vent 16 kt del Oest/Nord-Oest amb ràfegues de 27 kt
Temperatura 18°C
Humitat 73%
Pressió 1012 hPa
Visibilitat 10 km o més
Escasses núvols a una alçada de 3000 ft
Cel ennuvolat a una alçada de 5000 ft
Cel ennuvolat a una alçada de 8000 ft

METAR: RJOP 131952Z 30016G27KT 9999 FEW030 BKN050 BKN080 18/13 Q1012 RMK 1CU030 5SC050 7AC080 A2989

Hora: 05:25 (20:25 UTC)


TAF: manca

Observacions i pronòstics meteorològics de més de 4000 aeroports (METAR i TAF).

Les estacions disponibles són els punts grocs i vermells al mapa.

Posi el ratolí al punt desitjat per veure el nom de l'estació.

Feu clic per veure les observacions i els pronòstics meteorològics.

Per canviar el mapa: feu clic els botons verds amb una creu de color negre per apropar; al botó verd amb un guió per allunyar la imatge; o en les fletxes verdes per a mapes adjacents.


METAR-TAF: